Actual water levels and discharges of Vltava river

Vraňany

Date and time (UTC) H (cm) Q (m³/s)
20. 6. 2024 14:30 56 95.4
20. 6. 2024 14:00 58 98
20. 6. 2024 13:00 47 86
20. 6. 2024 12:00 34 73
20. 6. 2024 11:00 29 68
20. 6. 2024 10:00 35 74
20. 6. 2024 09:00 40 79
20. 6. 2024 08:00 38 77
20. 6. 2024 07:00 43 82
20. 6. 2024 06:00 45 84
20. 6. 2024 05:00 46 85
20. 6. 2024 04:00 46 85
20. 6. 2024 03:00 48 87
20. 6. 2024 02:00 48 87

H - water level, Q - discharge

Praha-Chuchle

Date and time (UTC) H (cm) Q (m³/s)
20. 6. 2024 14:30 63 82.3
20. 6. 2024 14:00 63 82
20. 6. 2024 13:00 62 79
20. 6. 2024 12:00 62 79
20. 6. 2024 11:00 60 72
20. 6. 2024 10:00 60 72
20. 6. 2024 09:00 61 76
20. 6. 2024 08:00 62 79
20. 6. 2024 07:00 63 82
20. 6. 2024 06:00 63 82
20. 6. 2024 05:00 63 82
20. 6. 2024 04:00 63 82
20. 6. 2024 03:00 63 82
20. 6. 2024 02:00 63 82

H - water level, Q - discharge
more information

VD Vrané nad Vltavou

Date and time (UTC) H (m n. m.) Q (m³/s)
20. 6. 2024 14:40 199.52 60
20. 6. 2024 14:00 199.57 60
20. 6. 2024 13:00 199.60 60
20. 6. 2024 12:00 199.65 60
20. 6. 2024 11:00 199.71 60
20. 6. 2024 10:00 199.76 60
20. 6. 2024 09:00 199.74 60
20. 6. 2024 08:00 199.60 60
20. 6. 2024 07:00 199.45 60
20. 6. 2024 06:00 199.39 60
20. 6. 2024 05:00 199.42 60
20. 6. 2024 04:00 199.49 60
20. 6. 2024 03:00 199.58 60
20. 6. 2024 02:00 199.66 60

H - water level, Q - outflow

VD Štěchovice

Date and time (UTC) H (m n. m.) Q (m³/s)
20. 6. 2024 14:40 216.44 0
20. 6. 2024 14:00 216.43 -
20. 6. 2024 13:00 216.53 -
20. 6. 2024 12:00 216.64 -
20. 6. 2024 11:00 216.75 -
20. 6. 2024 10:00 216.85 -
20. 6. 2024 09:00 216.98 -
20. 6. 2024 08:00 216.89 159
20. 6. 2024 07:00 216.75 158
20. 6. 2024 06:00 216.60 -
20. 6. 2024 05:00 216.78 28
20. 6. 2024 04:00 216.78 0
20. 6. 2024 03:00 216.77 -
20. 6. 2024 02:00 216.77 -

H - water level, Q - outflow

VD Slapy

Date and time (UTC) H (m n. m.) Q (m³/s)
20. 6. 2024 14:40 270.23 0
20. 6. 2024 14:00 270.23 0
20. 6. 2024 13:00 270.24 0
20. 6. 2024 12:00 270.22 0
20. 6. 2024 11:00 270.25 0
20. 6. 2024 10:00 270.22 0
20. 6. 2024 09:00 270.23 110
20. 6. 2024 08:00 270.25 175
20. 6. 2024 07:00 270.26 201
20. 6. 2024 06:00 270.32 61
20. 6. 2024 05:00 270.28 0
20. 6. 2024 04:00 270.28 0
20. 6. 2024 03:00 270.28 0
20. 6. 2024 02:00 270.28 0

H - water level, Q - outflow

VD Kamýk

Date and time (UTC) H (m n. m.) Q (m³/s)
20. 6. 2024 14:40 282.4 -
20. 6. 2024 14:00 282.41 -
20. 6. 2024 13:00 282.37 -
20. 6. 2024 12:00 282.38 -
20. 6. 2024 11:00 282.42 -
20. 6. 2024 10:00 282.46 -
20. 6. 2024 09:00 282.47 -
20. 6. 2024 08:00 282.54 -
20. 6. 2024 07:00 282.44 -
20. 6. 2024 06:00 282.57 -
20. 6. 2024 05:00 282.70 -
20. 6. 2024 04:00 282.91 -
20. 6. 2024 03:00 282.82 -
20. 6. 2024 02:00 282.81 -

H - water level, Q - outflow

VD Orlík

Date and time (UTC) H (m n. m.) Q (m³/s)
20. 6. 2024 14:40 346.68 0
20. 6. 2024 14:00 346.68 0
20. 6. 2024 13:00 346.67 0
20. 6. 2024 12:00 346.66 0
20. 6. 2024 11:00 346.66 0
20. 6. 2024 10:00 346.64 0
20. 6. 2024 09:00 346.65 0
20. 6. 2024 08:00 346.64 125
20. 6. 2024 07:00 346.64 54
20. 6. 2024 06:00 346.65 0
20. 6. 2024 05:00 346.65 0
20. 6. 2024 04:00 346.63 0
20. 6. 2024 03:00 346.65 0
20. 6. 2024 02:00 346.62 0

H - water level, Q - outflow

VD Kořensko

Date and time (UTC) H (m n. m.) Q (m³/s)
20. 6. 2024 14:40 352.51 13.7
20. 6. 2024 14:00 352.51 -
20. 6. 2024 13:00 352.51 -
20. 6. 2024 12:00 352.52 -
20. 6. 2024 11:00 352.53 -
20. 6. 2024 10:00 352.54 -
20. 6. 2024 09:00 352.54 -
20. 6. 2024 08:00 352.54 21
20. 6. 2024 07:00 352.51 21
20. 6. 2024 06:00 352.49 -
20. 6. 2024 05:00 352.49 14
20. 6. 2024 04:00 352.48 14
20. 6. 2024 03:00 352.46 -
20. 6. 2024 02:00 352.47 -

H - water level, Q - outflow

VD Hněvkovice I - přehrada

Date and time (UTC) H (m n. m.) Q (m³/s)
- - -

H - water level, Q - outflow

České Budějovice

Date and time (UTC) H (cm) Q (m³/s)
20. 6. 2024 14:20 102 21.1
20. 6. 2024 14:00 101 22
20. 6. 2024 13:00 104 21
20. 6. 2024 12:00 102 24
20. 6. 2024 11:00 103 24
20. 6. 2024 10:00 102 24
20. 6. 2024 09:00 104 25
20. 6. 2024 08:00 103 24
20. 6. 2024 07:00 103 23
20. 6. 2024 06:00 103 24
20. 6. 2024 05:00 103 23
20. 6. 2024 04:00 103 23
20. 6. 2024 03:00 103 21
20. 6. 2024 02:00 100 18

H - water level, Q - discharge
more information

Vyšší Brod

Date and time (UTC) H (cm) Q (m³/s)
20. 6. 2024 14:20 100 16.8
20. 6. 2024 14:00 99 16
20. 6. 2024 13:00 98 16
20. 6. 2024 12:00 98 16
20. 6. 2024 11:00 110 21
20. 6. 2024 10:00 111 21
20. 6. 2024 09:00 111 21
20. 6. 2024 08:00 111 21
20. 6. 2024 07:00 110 21
20. 6. 2024 06:00 98 16
20. 6. 2024 05:00 98 16
20. 6. 2024 04:00 98 16
20. 6. 2024 03:00 97 16
20. 6. 2024 02:00 97 16

H - water level, Q - discharge
Source data
Labe Basin Vltava Basin Povodí Moravy ČHMÚ
Po vodě ekologicky, levně a v pohodě
backgroung on backgroung off